CAPE
0 0 0 0 2 79 3 0 0 36 597 431 238 273 41 45 145 137 46 46 42 66 114 128 93 88 87 243 518 536 431 588 749 976 1097 270 427 697 622 1397 1483 1138 1362 1363
0 0 0 0 1 69 198 64 4 443 304 375 3 349 380 15 173 21 0 80 87 80 133 146 103 136 180 252 512 838 680 743 806 772 1080 704 866 583 638 1505 1474 779 1151 1661
0 0 0 0 0 2 36 97 33 38 62 140 208 109 425 277 182 61 0 187 100 103 132 127 74 216 282 175 664 952 958 1209 756 846 1017 674 698 785 1022 1587 1443 1343 1462 1479
0 0 0 0 0 0 0 38 42 1 0 35 186 63 1 0 22 350 140 24 72 174 174 119 95 167 346 168 558 959 1278 1226 1006 1198 676 978 725 861 739 1248 1324 1230 1436 1341
0 0 0 0 0 0 0 0 8 0 0 0 4 55 42 0 44 328 356 283 234 222 443 0 0 0 472 498 273 1010 1330 1104 1362 1075 1166 947 624 734 1013 679 592 1554 1454 1376
0 0 0 0 0 0 0 0 2 0 0 0 5 54 28 0 2 87 622 369 243 351 354 213 87 320 415 416 577 1436 1522 1199 1306 1135 765 935 649 1079 817 731 1286 1421 1553 1306
0 0 0 0 0 0 0 0 0 0 1 21 65 101 42 0 139 48 0 117 476 813 565 401 610 408 185 156 200 19 1375 1226 1390 1367 1050 990 877 822 1128 878 960 1158 986 1464
0 0 0 0 0 0 0 0 0 33 208 49 30 141 123 29 28 137 1 415 926 926 833 678 850 480 97 320 444 628 1447 1346 1340 1609 1435 1214 1431 1104 1024 1779 1059 723 1150 1312
0 1 0 0 0 0 0 0 0 1 32 0 3 58 102 24 12 0 111 669 822 874 960 679 976 853 575 518 827 997 1663 1690 1714 1563 1474 1464 1207 1071 1381 1353 1434 949 1575 1630
0 1 0 0 0 0 0 0 0 0 2 31 19 5 97 25 8 23 165 67 297 448 725 806 963 958 983 668 605 1336 1752 1732 1582 1607 1347 1233 1472 1267 1181 1195 1410 1036 1328 1329
0 0 4 0 0 0 0 0 0 4 29 13 49 2 124 47 0 0 6 13 40 156 262 583 1013 1004 1140 1022 795 884 1242 1715 1688 1602 1473 1468 1337 1374 1251 943 1189 1350 1121 1292
0 0 7 4 0 0 0 0 2 1 0 0 0 2 2 0 10 6 17 54 202 145 299 482 683 1089 1404 992 872 1312 1309 1537 1521 1691 1520 1329 1288 1375 1428 695 1217 1458 1059 1099
0 0 0 1 11 0 0 0 10 8 6 47 125 195 89 72 3 80 381 245 412 310 347 495 717 975 1036 1288 1208 978 1301 1574 1600 1703 1585 1355 1463 1217 1254 1226 1446 1351 1474 1128
0 0 0 0 51 11 37 0 0 3 18 39 190 292 345 313 230 333 502 317 493 363 801 1020 1247 1394 1302 1390 1446 1625 1290 1427 1635 1538 1580 1401 1398 1379 1321 1382 1257 1293 1567 1293
0 0 0 0 27 0 0 30 34 0 0 9 32 1 206 336 216 99 343 387 530 514 758 1024 961 984 1142 1243 1394 1309 1489 1392 1675 1420 1341 1244 1331 1086 1199 1025 1232 1242 1322 1249
0 0 0 0 0 0 0 0 17 1 15 14 5 0 40 227 213 228 404 543 535 653 475 866 763 1020 897 1142 1295 1395 1100 1123 852 919 776 644 347 127 0 11 906 1093 1097 1028
0 17 1 0 0 4 0 0 66 29 38 25 21 99 257 178 121 96 314 426 456 582 593 723 694 874 883 761 1133 1038 1121 1292 1048 872 611 606 415 1 0 20 776 887 799 1099
58 47 187 1 16 4 4 16 8 31 19 13 22 101 90 372 113 54 158 294 442 566 908 768 658 551 297 328 190 229 768 816 741 318 391 345 412 512 691 830 987 1657 1397 797
10 70 54 102 3 18 48 14 75 13 11 1 6 39 176 242 149 164 86 159 528 473 931 854 630 495 571 470 392 97 0 1 2 3 35 96 59 14 30 573 772 1058 1293 1464
0 11 59 42 18 0 96 38 0 0 0 0 0 32 233 257 116 23 214 392 802 1117 997 924 745 669 591 214 95 153 10 0 0 0 0 0 67 29 8 66 397 619 776 678
27 3 27 59 33 0 69 64 0 1 0 1 2 4 358 412 866 883 923 922 1611 1652 1598 1359 833 818 892 688 653 633 540 406 459 189 102 36 35 13 62 85 148 268 238 117
189 213 74 93 40 19 62 103 0 0 0 23 39 199 517 1224 1226 1057 1178 1752 1482 1293 1012 1021 1001 922 799 880 741 847 785 704 587 578 638 671 539 242 251 177 219 140 106 63
60 53 110 61 40 149 148 18 66 0 16 23 3 111 885 1334 1252 1265 1343 1567 1232 1208 1231 1149 811 540 363 321 396 579 800 620 607 564 245 121 144 86 83 120 106 77 84 74
341 18 298 302 190 239 169 14 8 11 7 7 17 143 566 1287 984 1152 1164 979 468 112 25 15 20 10 26 126 52 569 426 263 497 164 69 10 2 1 0 9 8 22 54 39
51 0 0 38 350 447 31 26 40 4 17 38 52 206 792 883 732 686 569 345 234 121 43 20 8 0 19 25 35 94 142 68 126 88 74 22 0 0 0 0 0 0 0 0
56 0 0 2 0 2 251 69 23 22 44 38 213 510 538 815 862 716 488 398 341 288 159 61 16 7 26 2 14 7 133 191 18 82 190 167 100 11 0 0 0 0 0 0
CIN
-0 -0 -0 -0 -1 -29 -8 -0 -0 -45 -10 -27 -34 -40 -83 -50 -28 -39 -47 -36 -3 -12 -5 -4 -3 -11 -6 -16 -4 -1 -4 -10 -13 -7 -6 -42 -22 -4 -4 -20 -13 -9 -7 -7
-0 -0 -0 -0 -12 -59 -36 -46 -47 -12 -3 -15 -42 -30 -39 -54 -36 -73 -0 -42 -8 -7 -21 -7 -11 -3 -4 -31 -18 -2 -3 -11 -7 -9 -3 -13 -11 -4 -4 -7 -12 -16 -2 -2
-0 -0 -0 -0 -0 -6 -38 -9 -6 -2 -3 -7 -65 -44 -22 -19 -21 -45 -0 -51 -15 -7 -12 -39 -48 -17 -10 -46 -32 -13 -4 -9 -14 -4 -4 -8 -12 -3 -6 -12 -15 -8 -1 -1
-0 -0 -0 -0 -0 -0 -0 -4 -7 -5 -0 -1 -9 -20 -11 -0 -5 -17 -39 -51 -19 -23 -38 -108 -69 -38 -17 -75 -13 -9 -14 -15 -13 -4 -6 -5 -11 -7 -5 -6 -9 -11 -9 -1
-0 -0 -0 -0 -0 -0 -0 -0 -10 -0 -0 -0 -20 -28 -127 -0 -139 -25 -54 -29 -22 -6 -48 -0 -0 -0 -25 -57 -64 -7 -29 -23 -2 -10 -5 -8 -13 -8 -5 -5 -9 -12 -13 -1
-0 -0 -0 -0 -0 -0 -0 -0 -8 -0 -0 -0 -4 -35 -146 -0 -57 -71 -35 -43 -58 -11 -18 -62 -94 -61 -29 -99 -27 -7 -27 -36 -19 -16 -16 -8 -9 -11 -8 -7 -10 -11 -18 -20
-0 -0 -0 -0 -0 -0 -0 -0 -0 -0 -4 -3 -25 -9 -26 -0 -137 -175 -0 -98 -68 -13 -23 -31 -9 -20 -80 -115 -145 -122 -19 -31 -22 -17 -11 -23 -21 -14 -6 -13 -8 -7 -14 -19
-0 -0 -0 -0 -0 -0 -0 -0 -0 -7 -6 -43 -57 -5 -12 -76 -13 -139 -1 -28 -10 -17 -18 -17 -24 -29 -60 -59 -63 -22 -14 -40 -38 -5 -8 -12 -12 -22 -13 -10 -19 -25 -11 -8
-0 -6 -0 -0 -0 -0 -0 -0 -0 -25 -34 -0 -71 -23 -61 -12 -47 -0 -2 -4 -18 -11 -5 -48 -30 -27 -33 -31 -10 -12 -30 -39 -31 -9 -2 -3 -12 -23 -1 -8 -21 -16 -16 -22
-0 -7 -0 -0 -0 -0 -0 -0 -0 -0 -9 -34 -63 -68 -0 -5 -9 -5 -11 -17 -2 -29 -41 -14 -17 -11 -11 -41 -26 -5 -26 -38 -40 -8 -12 -11 -6 -19 -15 -4 -9 -12 -22 -14
-0 -0 -14 -1 -0 -0 -0 -0 -0 -5 -6 -25 -33 -14 -5 -19 -0 -0 -16 -82 -61 -32 -67 -37 -18 -4 -5 -13 -15 -23 -29 -26 -28 -13 -4 -3 -9 -9 -16 -14 -3 -11 -15 -42
-0 -0 -6 -11 -0 -0 -0 -0 -2 -3 -0 -0 -0 -6 -35 -0 -78 -82 -96 -69 -46 -43 -36 -37 -35 -15 -6 -12 -16 -7 -16 -20 -17 -12 -13 -12 -9 -3 -3 -29 -3 -9 -9 -48
-0 -0 -0 -19 -52 -0 -0 -0 -3 -3 -3 -7 -30 -6 -20 -21 -41 -40 -40 -51 -74 -71 -54 -38 -5 -7 -15 -7 -11 -15 -4 -12 -14 -8 -9 -11 -11 -9 -5 -10 -6 -3 -6 -13
-0 -0 -0 -0 -35 -78 -15 -0 -0 -3 -5 -29 -23 -53 -3 -6 -41 -33 -58 -59 -60 -57 -46 -17 -13 -39 -51 -49 -47 -17 -12 -9 -14 -7 -9 -12 -16 -14 -10 -8 -12 -8 -4 -7
-0 -0 -0 -0 -23 -11 -0 -19 -11 -0 -0 -14 -54 -6 -13 -27 -18 -56 -45 -56 -44 -45 -14 -27 -29 -46 -54 -49 -30 -35 -22 -15 -6 -13 -17 -11 -21 -20 -14 -17 -10 -5 -4 -3
-0 -0 -0 -0 -0 -0 -3 -10 -66 -2 -8 -10 -9 -0 -13 -23 -30 -19 -8 -48 -42 -21 -36 -27 -45 -46 -71 -34 -4 -2 -4 -14 -24 -20 -27 -48 -62 -52 -0 -96 -7 -3 -2 -5
-5 -17 -0 -0 -0 -36 -0 -0 -10 -17 -22 -23 -28 -5 -12 -35 -65 -34 -5 -29 -30 -2 -7 -28 -57 -49 -60 -70 -2 -1 -0 -1 -6 -17 -24 -9 -13 -3 -0 -28 -14 -22 -27 -14
-17 -30 -9 -3 -7 -3 -6 -16 -12 -7 -6 -5 -6 -42 -39 -20 -33 -67 -25 -17 -24 -1 -12 -34 -57 -76 -148 -138 -170 -130 -9 -9 -17 -56 -37 -42 -29 -2 -1 -2 -7 -5 -15 -22
-34 -13 -7 -1 -10 -18 -22 -33 -11 -5 -26 -34 -37 -6 -20 -29 -38 -45 -47 -21 -6 -3 -14 -31 -65 -75 -67 -88 -97 -147 -0 -32 -18 -30 -122 -113 -64 -62 -58 -29 -6 -4 -4 -2
-0 -29 -3 -2 -5 -0 -12 -14 -0 -0 -0 -0 -0 -10 -12 -40 -24 -59 -65 -17 -4 -23 -31 -53 -52 -52 -52 -120 -146 -103 -98 -0 -0 -0 -0 -0 -104 -60 -107 -108 -2 -5 -2 -2
-5 -4 -0 -7 -5 -0 -36 -37 -0 -56 -0 -5 -0 -2 -16 -20 -12 -24 -19 -10 -10 -6 -31 -5 -15 -18 -9 -29 -17 -11 -9 -18 -14 -67 -82 -117 -88 -56 -44 -40 -20 -0 -20 -75
-9 -6 -6 -6 -4 -3 -40 -31 -0 -0 -1 -2 -20 -15 -14 -13 -18 -29 -20 -24 -52 -31 -62 -25 -28 -20 -23 -10 -20 -2 -1 -4 -2 -4 -1 -3 -0 -8 -8 -61 -8 -11 -23 -79
-14 -52 -21 -6 -10 -21 -24 -57 -17 -0 -2 -5 -23 -25 -13 -21 -18 -26 -6 -5 -23 -6 -3 -10 -19 -37 -51 -53 -32 -8 -7 -14 -1 -4 -60 -82 -66 -74 -97 -47 -89 -107 -159 -174
-101 -125 -28 -39 -28 -23 -20 -16 -8 -26 -20 -16 -22 -17 -3 -8 -17 -10 -10 -7 -46 -99 -76 -122 -118 -83 -111 -83 -85 -1 -19 -40 -8 -42 -91 -172 -27 -0 -0 -68 -97 -156 -146 -147
-8 -0 -0 -233 -44 -60 -63 -29 -15 -21 -44 -10 -7 -4 -2 -8 -14 -6 -13 -29 -47 -89 -90 -84 -52 -0 -109 -47 -56 -37 -35 -56 -39 -40 -43 -75 -0 -0 -0 -0 -0 -0 -0 -0
-84 -0 -0 -51 -0 -35 -119 -100 -106 -15 -0 -18 -18 -5 -11 -5 -3 -1 -6 -11 -20 -26 -36 -51 -51 -0 -115 -1 -4 -3 -18 -18 -72 -32 -1 -5 -12 -56 -0 -0 -0 -0 -0 -0
Wind_Speed
10 3 8 24 8 10 6 10 21 25 15 11 11 11 12 16 3 8 7 29 18 20 18 18 15 16 17 14 14 14 13 8 3 1 15 8 22 19 23 5 14 21 19 16
11 12 21 30 22 5 5 10 20 10 11 10 10 13 11 14 14 19 24 29 22 21 14 25 17 18 17 16 16 15 15 12 9 5 2 7 19 18 21 6 4 16 20 18
15 3 1 24 27 17 10 17 20 19 14 13 9 20 7 8 12 17 23 23 10 20 17 2 29 13 9 16 16 15 14 13 12 7 4 8 20 19 15 4 6 15 17 22
9 16 22 13 23 25 27 21 17 19 25 23 17 23 21 28 27 24 24 20 19 12 14 12 24 20 18 15 14 17 14 13 14 9 3 4 19 16 17 0 8 6 13 21
7 1 7 6 23 22 27 20 23 26 26 30 18 20 16 6 29 26 19 21 22 18 13 12 13 28 26 10 8 19 10 12 13 14 20 5 17 27 20 9 13 2 12 20
16 14 2 12 5 17 29 22 17 25 28 33 31 22 22 5 15 26 14 18 21 16 14 12 19 23 3 8 24 2 8 13 11 14 5 7 7 26 23 25 5 4 7 17
3 14 7 9 8 5 16 26 29 30 25 26 11 20 18 13 4 8 15 31 27 12 7 13 15 13 2 5 5 22 15 13 10 11 8 5 19 32 24 25 21 14 6 4
1 1 8 1 7 3 3 17 31 24 21 22 25 21 16 5 7 14 17 11 9 7 6 8 5 6 5 10 16 27 17 10 8 9 11 7 6 18 28 24 21 21 29 21
18 4 6 7 2 23 4 11 36 34 19 25 25 24 16 7 8 9 8 9 7 6 4 10 6 3 5 8 13 19 12 8 7 9 8 7 7 9 14 20 21 27 25 18
24 15 5 5 4 24 31 26 29 33 32 24 23 24 21 2 5 7 7 9 8 10 11 11 3 7 3 5 8 8 8 6 6 7 8 8 8 11 11 16 10 19 19 14
15 29 18 16 3 22 5 30 29 32 27 28 21 15 8 5 4 5 7 8 9 9 10 12 14 10 1 2 5 8 14 12 6 7 8 7 8 11 12 15 11 15 18 16
6 28 14 3 9 13 30 13 27 30 27 27 31 21 12 6 4 8 6 8 11 13 12 12 11 14 10 3 4 7 9 9 7 9 8 7 6 6 7 14 10 11 13 17
4 13 22 22 28 13 22 24 33 31 32 20 23 15 11 10 10 8 7 8 10 10 12 13 13 14 14 16 6 8 13 12 10 10 10 10 9 8 8 8 11 12 16 14
20 14 16 33 14 18 28 12 32 31 28 20 15 16 10 9 11 9 8 7 8 10 12 14 16 18 22 24 26 21 11 16 15 15 11 12 14 12 14 12 10 9 10 10
22 22 33 36 15 15 30 35 35 34 33 31 14 22 12 13 7 5 6 7 9 10 11 14 16 17 20 23 22 22 25 24 26 25 27 16 14 24 18 24 20 10 9 11
19 26 36 40 36 24 31 27 38 14 23 28 29 20 7 3 4 3 5 7 9 9 11 14 15 18 21 22 20 18 21 20 28 31 29 18 22 33 31 36 36 26 26 20
24 29 25 39 36 26 31 42 35 12 10 15 26 20 5 2 5 7 5 7 7 8 8 12 15 17 19 20 19 17 14 15 18 26 26 28 21 7 8 43 34 27 28 23
19 29 36 38 37 46 29 20 35 20 21 21 23 9 15 12 10 10 7 6 7 7 8 10 12 14 17 19 19 17 16 13 15 17 19 25 29 21 20 25 25 24 27 29
38 30 34 30 42 43 32 29 26 21 24 20 22 12 9 8 9 11 9 6 5 6 6 7 9 10 13 16 18 20 19 16 15 15 17 17 24 30 26 26 25 24 24 22
44 43 40 39 39 43 34 31 23 23 29 21 21 14 5 7 14 16 2 6 7 7 7 7 8 8 10 12 15 16 17 18 17 15 15 16 17 19 30 32 27 21 18 19
37 43 44 43 43 37 33 20 14 22 31 8 13 12 5 10 11 9 5 6 7 9 8 7 7 8 11 11 11 12 12 13 14 16 17 17 17 15 13 17 23 20 18 20
35 42 43 41 47 46 24 30 25 18 23 13 10 6 4 3 5 6 4 6 7 6 8 6 8 9 10 11 12 12 14 15 16 17 18 18 17 16 16 13 12 17 17 18
40 41 44 39 45 34 19 21 18 24 7 10 8 5 3 3 5 5 4 5 6 6 6 5 8 10 11 14 15 15 13 16 16 15 16 16 14 14 15 15 15 15 16 16
33 26 30 38 38 29 23 25 17 16 15 7 5 4 1 1 4 4 4 5 6 6 7 9 9 10 13 14 14 14 14 15 13 13 13 14 14 13 13 13 14 14 14 14
33 31 30 34 36 33 28 25 17 15 11 3 2 3 1 1 3 3 3 4 5 7 8 11 12 14 13 15 15 14 14 12 13 12 12 12 12 12 13 13 14 14 14 12
31 31 31 33 35 34 28 28 28 29 6 3 1 3 3 2 1 1 3 5 5 7 10 12 14 15 13 14 14 13 12 11 11 10 11 11 11 11 11 11 13 15 13 13
Wind_Direction
151 141 304 274 325 322 348 9 204 192 122 107 102 80 112 142 98 138 250 197 140 148 140 136 117 115 121 112 117 114 117 105 96 294 252 276 226 233 215 63 110 220 233 261
157 175 194 237 289 10 17 337 253 48 20 351 4 142 99 128 127 138 160 177 160 145 131 161 132 137 128 122 127 124 126 121 124 127 265 275 241 247 237 80 333 255 242 248
175 134 30 223 276 296 304 298 296 307 334 333 16 202 343 313 136 148 161 170 254 162 143 257 210 140 118 137 138 132 126 129 138 133 263 270 251 251 261 310 307 270 256 240
174 196 289 303 286 277 278 292 296 292 290 288 302 292 299 270 252 171 170 164 152 127 141 126 241 189 159 157 155 137 127 131 141 144 209 272 250 261 258 13 301 308 280 253
169 131 190 310 286 281 268 299 285 282 285 274 294 296 317 20 212 186 162 160 165 156 142 150 146 187 189 157 139 142 114 136 139 152 252 239 253 240 260 275 279 322 285 261
195 241 336 198 300 287 264 284 298 282 285 271 270 287 303 18 181 260 211 152 154 161 159 155 158 170 300 302 202 327 127 142 143 150 174 256 171 242 251 246 267 294 297 272
54 188 347 324 171 180 283 271 269 266 275 285 306 302 307 171 69 40 126 200 191 152 143 164 157 160 49 128 171 178 157 150 148 147 156 223 253 234 247 248 258 268 288 288
63 81 168 5 175 285 255 270 249 264 284 289 290 310 313 85 42 116 148 99 68 127 144 157 174 167 152 152 170 175 158 149 146 151 157 183 217 259 248 255 258 258 245 270
221 310 127 136 354 186 320 201 227 247 296 285 285 291 314 18 28 22 30 11 19 33 53 157 158 182 170 162 162 174 168 158 150 155 162 179 209 201 261 259 259 252 258 284
210 322 44 47 50 191 220 255 251 248 258 272 278 245 279 83 12 43 55 30 33 356 348 344 135 152 176 183 186 259 186 191 168 167 167 180 193 190 230 259 248 261 268 282
222 264 295 280 116 188 167 230 254 257 270 272 283 320 98 329 339 30 13 38 26 18 4 347 327 328 182 239 227 211 187 188 203 191 183 175 187 186 191 193 242 256 266 269
295 266 295 7 150 163 214 164 255 259 268 273 278 295 337 13 34 331 4 7 8 359 4 359 357 323 330 217 231 233 218 214 209 230 222 224 209 218 215 187 205 241 256 268
226 287 283 282 260 165 178 193 238 255 258 289 287 302 319 329 334 339 353 360 358 359 356 353 343 336 319 305 288 226 260 247 227 225 220 230 241 243 235 212 227 252 263 265
288 290 283 258 289 277 253 180 249 254 265 281 297 298 328 332 320 333 344 0 14 1 353 349 339 327 309 298 284 292 240 255 262 249 213 204 242 249 258 256 220 214 218 240
282 278 265 257 286 296 217 261 248 223 253 263 286 300 316 309 317 348 33 22 6 360 0 352 349 341 324 310 298 287 279 269 265 262 269 253 243 257 258 259 261 230 216 212
269 273 266 259 261 284 270 229 239 195 275 274 273 297 314 330 98 47 44 27 1 358 351 357 354 344 332 322 320 306 285 279 270 266 266 266 261 257 249 251 247 259 260 267
275 276 269 262 260 280 275 237 227 283 280 281 272 289 117 34 337 327 359 6 5 353 360 0 358 353 349 340 334 326 314 298 286 272 269 268 279 231 243 236 250 259 261 268
277 270 267 262 263 254 275 209 257 277 282 280 279 301 277 294 310 324 349 358 359 357 359 4 11 12 13 16 10 355 340 331 304 293 280 275 272 269 258 256 261 263 264 265
262 263 264 265 258 260 270 264 285 279 280 286 286 295 286 290 318 316 341 6 23 359 8 20 32 24 12 13 22 18 9 343 326 315 299 294 278 288 274 263 264 266 272 276
258 258 261 260 261 253 260 256 307 293 278 281 277 284 261 289 291 301 26 21 36 41 28 29 26 32 20 11 13 14 14 10 3 347 340 329 330 302 271 287 276 275 284 287
257 252 254 254 256 264 262 278 305 290 258 314 272 280 270 292 312 8 24 33 30 20 7 9 16 3 357 6 3 7 15 12 12 353 4 339 352 340 326 322 297 287 292 290
259 254 250 252 250 252 260 260 267 258 278 310 335 349 318 354 357 357 12 19 6 2 3 13 1 355 0 358 357 352 345 348 352 349 343 334 353 5 354 342 333 300 306 305
262 257 254 250 253 263 270 264 289 250 254 296 314 342 1 346 326 329 350 38 44 34 26 41 10 357 356 345 341 343 347 340 345 351 351 349 353 356 353 347 348 315 311 316
263 290 259 252 251 266 262 255 224 252 316 332 336 327 22 26 329 320 335 357 15 24 3 354 350 345 344 346 341 344 344 342 348 350 354 355 354 354 352 5 342 346 328 327
269 268 271 257 247 273 266 259 270 267 259 270 15 357 100 36 330 323 338 356 10 10 355 342 336 332 337 336 338 337 342 345 343 346 352 359 3 359 354 348 347 350 352 4
266 264 257 247 259 260 270 251 250 241 230 249 52 71 354 78 32 27 359 355 7 358 344 334 334 334 339 340 338 340 343 348 347 342 343 352 359 5 359 355 345 341 350 356